Powrót do katalogu

BRO-15

AktywnyNaukaSSO
NORAD 60553·PAYLOAD·🇫🇷 France

Wystrzelony Aug 16, 2024 z Vandenberg Space Force Base

Loading…

Następne Przeloty (najbliższe 24 godziny)

TLE

ŚwieżeSource: Space-Track

Epoka: Sep 14, 2026, 12:32 UTC

1 60553U 24149CP  26257.52277046  .00000086  00000-0  12625-4 0  9998
2 60553  97.6735 331.1930 0008789 141.3996 218.7856 14.96342432113362

Śledź BRO-15 w czasie rzeczywistym z AllMySat

Download on the App Store